SXS9039 LTAU-LTBJ

Flight info

Callsign SXS9039
Flight time 1h 15m
Altitude 32000
Route KISLA UA17 BELSU UL605 BADOX UT243 HAY UR32 HALIL UT54 KULAR
Aircraft B738/M-SDE2E3FGHIRWXY/LB1

Departure

Time 2026-05-07 11:58
Airport Kayseri Erkilet International Airport (LTAU)

Arrival

Time 2026-05-07 13:13
Airport Adnan Menderes International Airport (LTBJ)
Time Latitude Longitude Altitude Speed Heading
2026-05-07 11:40 38.76654 35.48640 3467 ft 0 kts 166°
2026-05-07 11:52 38.76660 35.48638 3467 ft 4 kts 168°
2026-05-07 11:52 38.76686 35.48635 3465 ft 4 kts 188°
2026-05-07 11:52 38.76712 35.48644 3465 ft 4 kts 212°
2026-05-07 11:53 38.76731 35.48666 3465 ft 4 kts 243°
2026-05-07 11:53 38.76735 35.48680 3466 ft 0 kts 257°
2026-05-07 11:55 38.76735 35.48677 3466 ft 1 kts 257°
2026-05-07 11:55 38.76730 35.48649 3467 ft 5 kts 257°
2026-05-07 11:55 38.76715 35.48573 3466 ft 12 kts 256°
2026-05-07 11:55 38.76696 35.48465 3467 ft 13 kts 258°
2026-05-07 11:56 38.76682 35.48354 3467 ft 12 kts 259°
2026-05-07 11:56 38.76662 35.48250 3467 ft 12 kts 255°
2026-05-07 11:56 38.76643 35.48145 3466 ft 12 kts 265°
2026-05-07 11:56 38.76705 35.48096 3469 ft 11 kts 346°
2026-05-07 11:57 38.76766 35.48100 3469 ft 6 kts 54°
2026-05-07 11:57 38.76787 35.48194 3470 ft 34 kts 76°
2026-05-07 11:57 38.76904 35.48808 3463 ft 104 kts 76°
2026-05-07 11:57 38.77126 35.49956 3462 ft 159 kts 75°
2026-05-07 11:58 38.77400 35.51480 3718 ft 185 kts 76°
2026-05-07 11:58 38.77646 35.53189 4214 ft 201 kts 80°
2026-05-07 11:58 38.77951 35.54883 5225 ft 190 kts 73°
2026-05-07 11:58 38.78318 35.56571 5748 ft 209 kts 73°
2026-05-07 11:59 38.78722 35.58474 6026 ft 229 kts 74°
2026-05-07 11:59 38.79241 35.60418 6566 ft 232 kts 57°
2026-05-07 11:59 38.80332 35.61911 7153 ft 233 kts 31°
2026-05-07 11:59 38.81866 35.62783 7417 ft 254 kts
2026-05-07 12:00 38.83671 35.62533 7854 ft 271 kts 344°
2026-05-07 12:00 38.85511 35.61826 8560 ft 279 kts 334°
2026-05-07 12:00 38.86973 35.60231 9451 ft 281 kts 302°
2026-05-07 12:00 38.87551 35.57848 10221 ft 287 kts 271°
2026-05-07 12:01 38.87470 35.55204 10554 ft 309 kts 268°
2026-05-07 12:01 38.87392 35.52346 10754 ft 332 kts 269°
2026-05-07 12:01 38.87326 35.49316 11231 ft 345 kts 269°
2026-05-07 12:01 38.87265 35.46261 11950 ft 348 kts 270°
2026-05-07 12:02 38.87210 35.43140 12730 ft 351 kts 270°
2026-05-07 12:02 38.87161 35.39988 13468 ft 356 kts 270°
2026-05-07 12:02 38.87115 35.36795 14180 ft 360 kts 270°
2026-05-07 12:02 38.87072 35.33565 14826 ft 364 kts 270°
2026-05-07 12:03 38.87031 35.30296 15471 ft 368 kts 270°
2026-05-07 12:03 38.86990 35.26994 16118 ft 372 kts 270°
2026-05-07 12:03 38.86948 35.23654 16753 ft 377 kts 270°
2026-05-07 12:03 38.86905 35.20275 17412 ft 380 kts 270°
2026-05-07 12:04 38.86861 35.16878 18096 ft 383 kts 270°
2026-05-07 12:04 38.86816 35.13444 18693 ft 387 kts 270°
2026-05-07 12:04 38.86769 35.09982 19260 ft 390 kts 271°
2026-05-07 12:04 38.86722 35.06494 19844 ft 392 kts 271°
2026-05-07 12:05 38.86673 35.02992 20438 ft 394 kts 271°
2026-05-07 12:05 38.86623 34.99466 21000 ft 396 kts 271°
2026-05-07 12:05 38.86571 34.95925 21599 ft 397 kts 272°
2026-05-07 12:05 38.86518 34.92373 22182 ft 399 kts 272°
2026-05-07 12:06 38.86464 34.88794 22711 ft 402 kts 272°
2026-05-07 12:06 38.86409 34.85192 23213 ft 405 kts 272°
2026-05-07 12:06 38.86353 34.81563 23723 ft 408 kts 272°
2026-05-07 12:06 38.86294 34.77911 24160 ft 410 kts 272°
2026-05-07 12:07 38.86233 34.74244 24641 ft 411 kts 273°
2026-05-07 12:07 38.86171 34.70579 25152 ft 410 kts 273°
2026-05-07 12:07 38.86108 34.66918 25649 ft 410 kts 273°
2026-05-07 12:07 38.86044 34.63257 26114 ft 412 kts 273°
2026-05-07 12:08 38.85979 34.59571 26524 ft 414 kts 273°
2026-05-07 12:08 38.85913 34.55864 26940 ft 417 kts 273°
2026-05-07 12:08 38.85846 34.52146 27350 ft 418 kts 273°
2026-05-07 12:08 38.85776 34.48414 27757 ft 419 kts 273°
2026-05-07 12:09 38.85706 34.44665 28089 ft 422 kts 273°
2026-05-07 12:09 38.85633 34.40887 28421 ft 424 kts 273°
2026-05-07 12:09 38.85559 34.37101 28762 ft 426 kts 273°
2026-05-07 12:09 38.85483 34.33289 29139 ft 428 kts 273°
2026-05-07 12:10 38.85406 34.29469 29499 ft 429 kts 273°
2026-05-07 12:10 38.85326 34.25636 29882 ft 430 kts 273°
2026-05-07 12:10 38.85246 34.21817 30388 ft 427 kts 273°
2026-05-07 12:10 38.85163 34.18017 30824 ft 425 kts 273°
2026-05-07 12:11 38.85081 34.14238 31201 ft 423 kts 274°
2026-05-07 12:11 38.84999 34.10527 31637 ft 420 kts 274°
2026-05-07 12:11 38.84915 34.06791 32047 ft 419 kts 274°
2026-05-07 12:11 38.84832 34.03061 32393 ft 418 kts 274°
2026-05-07 12:12 38.84747 33.99332 32741 ft 417 kts 274°
2026-05-07 12:12 38.84662 33.95620 33125 ft 416 kts 274°
2026-05-07 12:12 38.84575 33.91923 33518 ft 413 kts 275°
2026-05-07 12:12 38.84487 33.88246 33910 ft 412 kts 275°
2026-05-07 12:13 38.84399 33.84575 34215 ft 412 kts 275°
2026-05-07 12:13 38.84310 33.80901 34456 ft 412 kts 274°
2026-05-07 12:13 38.84220 33.77219 34678 ft 413 kts 274°
2026-05-07 12:13 38.84128 33.73543 34932 ft 412 kts 274°
2026-05-07 12:14 38.84034 33.69862 35197 ft 412 kts 274°
2026-05-07 12:14 38.83940 33.66191 35420 ft 412 kts 274°
2026-05-07 12:14 38.83845 33.62515 35669 ft 412 kts 274°
2026-05-07 12:14 38.83749 33.58846 35909 ft 412 kts 273°
2026-05-07 12:15 38.83651 33.55177 36160 ft 411 kts 273°
2026-05-07 12:15 38.83454 33.47792 36204 ft 417 kts 273°
2026-05-07 12:16 38.83248 33.40419 36198 ft 414 kts 273°
2026-05-07 12:16 38.83038 33.33097 36197 ft 409 kts 273°
2026-05-07 12:17 38.82827 33.25812 36195 ft 409 kts 273°
2026-05-07 12:17 38.82613 33.18535 36198 ft 408 kts 273°
2026-05-07 12:18 38.82394 33.11266 36188 ft 408 kts 273°
2026-05-07 12:18 38.82171 33.03995 36177 ft 408 kts 273°
2026-05-07 12:19 38.81942 32.96722 36179 ft 408 kts 273°
2026-05-07 12:19 38.81709 32.89444 36195 ft 409 kts 273°
2026-05-07 12:20 38.81471 32.82150 36191 ft 410 kts 273°
2026-05-07 12:20 38.81228 32.74845 36180 ft 411 kts 273°
2026-05-07 12:21 38.80980 32.67529 36183 ft 411 kts 273°
2026-05-07 12:21 38.80727 32.60208 36180 ft 411 kts 273°
2026-05-07 12:22 38.80469 32.52891 36192 ft 411 kts 273°
2026-05-07 12:22 38.80207 32.45575 36182 ft 411 kts 273°
2026-05-07 12:23 38.79940 32.38258 36186 ft 411 kts 273°
2026-05-07 12:23 38.79670 32.30950 36183 ft 410 kts 272°
2026-05-07 12:24 38.79395 32.23657 36190 ft 410 kts 272°
2026-05-07 12:24 38.79116 32.16369 36190 ft 409 kts 272°
2026-05-07 12:25 38.78833 32.09094 36191 ft 408 kts 272°
2026-05-07 12:25 38.78546 32.01834 36186 ft 407 kts 272°
2026-05-07 12:26 38.78254 31.94584 36191 ft 407 kts 272°
2026-05-07 12:26 38.77959 31.87343 36185 ft 406 kts 272°
2026-05-07 12:27 38.77660 31.80119 36181 ft 406 kts 272°
2026-05-07 12:27 38.77358 31.72947 36181 ft 405 kts 272°
2026-05-07 12:28 38.77051 31.65739 36190 ft 405 kts 272°
2026-05-07 12:28 38.76739 31.58525 36191 ft 406 kts 272°
2026-05-07 12:29 38.76423 31.51301 36177 ft 406 kts 271°
2026-05-07 12:29 38.76101 31.44068 36187 ft 407 kts 271°
2026-05-07 12:30 38.75828 31.38015 36182 ft 408 kts 271°
2026-05-07 12:30 38.75499 31.30800 36178 ft 408 kts 271°
2026-05-07 12:31 38.75164 31.23543 36171 ft 408 kts 271°
2026-05-07 12:31 38.74823 31.16285 36178 ft 408 kts 271°
2026-05-07 12:32 38.74478 31.09031 36176 ft 409 kts 271°
2026-05-07 12:32 38.74128 31.01755 36173 ft 409 kts 271°
2026-05-07 12:33 38.73594 30.90839 36166 ft 410 kts 271°
2026-05-07 12:33 38.73233 30.83556 36174 ft 410 kts 271°
2026-05-07 12:34 38.72866 30.76274 36171 ft 410 kts 271°
2026-05-07 12:34 38.72497 30.69003 36170 ft 409 kts 271°
2026-05-07 12:35 38.72124 30.61731 36164 ft 408 kts 272°
2026-05-07 12:35 38.72137 30.54507 36169 ft 405 kts 276°
2026-05-07 12:36 38.72336 30.47308 36162 ft 405 kts 276°
2026-05-07 12:36 38.72508 30.40109 36153 ft 405 kts 276°
2026-05-07 12:37 38.72649 30.32908 36152 ft 404 kts 276°
2026-05-07 12:37 38.72777 30.25708 36158 ft 404 kts 276°
2026-05-07 12:38 38.72899 30.18557 36165 ft 404 kts 276°
2026-05-07 12:38 38.73019 30.11354 36148 ft 405 kts 275°
2026-05-07 12:39 38.73134 30.04153 36150 ft 403 kts 276°
2026-05-07 12:39 38.72913 29.96955 36144 ft 409 kts 266°
2026-05-07 12:40 38.71992 29.89764 36165 ft 409 kts 266°
2026-05-07 12:40 38.71070 29.82569 36139 ft 409 kts 266°
2026-05-07 12:41 38.70169 29.75386 36168 ft 409 kts 266°
2026-05-07 12:41 38.69272 29.68206 36173 ft 408 kts 266°
2026-05-07 12:42 38.68372 29.61027 36189 ft 408 kts 266°
2026-05-07 12:42 38.67470 29.53865 36188 ft 407 kts 266°
2026-05-07 12:43 38.66563 29.46713 36156 ft 407 kts 266°
2026-05-07 12:43 38.65814 29.39561 36154 ft 402 kts 268°
2026-05-07 12:44 38.65154 29.32611 35807 ft 386 kts 268°
2026-05-07 12:44 38.64825 29.29234 35471 ft 381 kts 268°
2026-05-07 12:44 38.64495 29.25886 35147 ft 377 kts 268°
2026-05-07 12:45 38.64170 29.22615 34772 ft 375 kts 268°
2026-05-07 12:45 38.63839 29.19312 34423 ft 373 kts 268°
2026-05-07 12:45 38.63508 29.16036 34060 ft 370 kts 268°
2026-05-07 12:45 38.63178 29.12780 33654 ft 368 kts 268°
2026-05-07 12:46 38.62852 29.09546 33284 ft 365 kts 268°
2026-05-07 12:46 38.62533 29.06333 32940 ft 363 kts 268°
2026-05-07 12:46 38.62217 29.03144 32576 ft 360 kts 268°
2026-05-07 12:46 38.61903 28.99978 32227 ft 358 kts 268°
2026-05-07 12:47 38.61591 28.96836 31880 ft 355 kts 268°
2026-05-07 12:47 38.61279 28.93710 31532 ft 353 kts 268°
2026-05-07 12:47 38.60968 28.90599 31205 ft 351 kts 268°
2026-05-07 12:47 38.60658 28.87513 30879 ft 350 kts 268°
2026-05-07 12:48 38.60348 28.84432 30545 ft 348 kts 268°
2026-05-07 12:48 38.60040 28.81377 30219 ft 346 kts 268°
2026-05-07 12:48 38.59732 28.78336 29834 ft 344 kts 268°
2026-05-07 12:48 38.59425 28.75312 29471 ft 341 kts 268°
2026-05-07 12:49 38.59121 28.72317 29116 ft 339 kts 268°
2026-05-07 12:49 38.58818 28.69347 28777 ft 336 kts 268°
2026-05-07 12:49 38.58516 28.66399 28431 ft 333 kts 268°
2026-05-07 12:49 38.58179 28.63476 28103 ft 333 kts 261°
2026-05-07 12:50 38.57346 28.60696 27786 ft 336 kts 250°
2026-05-07 12:50 38.56329 28.58012 27461 ft 336 kts 249°
2026-05-07 12:50 38.55298 28.55342 27128 ft 335 kts 249°
2026-05-07 12:50 38.54267 28.52657 26808 ft 340 kts 249°
2026-05-07 12:51 38.53219 28.49892 26481 ft 351 kts 249°
2026-05-07 12:51 38.52151 28.47059 26123 ft 355 kts 249°
2026-05-07 12:51 38.51084 28.44223 25762 ft 354 kts 249°
2026-05-07 12:51 38.50022 28.41398 25406 ft 352 kts 249°
2026-05-07 12:52 38.48968 28.38591 25061 ft 350 kts 249°
2026-05-07 12:52 38.47921 28.35797 24727 ft 349 kts 249°
2026-05-07 12:52 38.46876 28.33011 24390 ft 347 kts 249°
2026-05-07 12:52 38.45832 28.30236 24035 ft 347 kts 249°
2026-05-07 12:53 38.44839 28.27443 23671 ft 343 kts 256°
2026-05-07 12:53 38.44322 28.24501 23278 ft 338 kts 264°
2026-05-07 12:53 38.43951 28.21548 22905 ft 336 kts 265°
2026-05-07 12:53 38.43598 28.18609 22548 ft 334 kts 265°
2026-05-07 12:54 38.43242 28.15687 22208 ft 332 kts 265°
2026-05-07 12:54 38.42879 28.12786 21868 ft 331 kts 265°
2026-05-07 12:54 38.42509 28.09894 21541 ft 329 kts 264°
2026-05-07 12:54 38.42141 28.07065 21214 ft 328 kts 264°
2026-05-07 12:55 38.41764 28.04207 20887 ft 326 kts 264°
2026-05-07 12:55 38.41387 28.01364 20559 ft 325 kts 263°
2026-05-07 12:55 38.41010 27.98531 20228 ft 323 kts 264°
2026-05-07 12:55 38.40633 27.95715 19913 ft 321 kts 263°
2026-05-07 12:56 38.40257 27.92917 19587 ft 320 kts 263°
2026-05-07 12:56 38.39882 27.90125 19277 ft 318 kts 263°
2026-05-07 12:56 38.39507 27.87351 18966 ft 317 kts 263°
2026-05-07 12:56 38.39133 27.84578 18644 ft 317 kts 263°
2026-05-07 12:57 38.38759 27.81814 18299 ft 316 kts 263°
2026-05-07 12:57 38.38387 27.79060 17935 ft 315 kts 263°
2026-05-07 12:57 38.38014 27.76314 17595 ft 314 kts 263°
2026-05-07 12:57 38.37642 27.73583 17271 ft 312 kts 263°
2026-05-07 12:58 38.37272 27.70863 16936 ft 311 kts 263°
2026-05-07 12:58 38.36903 27.68150 16606 ft 310 kts 263°
2026-05-07 12:58 38.36533 27.65447 16292 ft 309 kts 263°
2026-05-07 12:58 38.36164 27.62756 15973 ft 308 kts 263°
2026-05-07 12:59 38.35797 27.60077 15654 ft 307 kts 263°
2026-05-07 12:59 38.35428 27.57403 15329 ft 306 kts 263°
2026-05-07 12:59 38.35062 27.54745 15037 ft 304 kts 263°
2026-05-07 12:59 38.34696 27.52097 14737 ft 303 kts 263°
2026-05-07 13:00 38.34331 27.49449 14427 ft 303 kts 263°
2026-05-07 13:00 38.33965 27.46809 14117 ft 303 kts 262°
2026-05-07 13:00 38.33598 27.44169 13793 ft 302 kts 262°
2026-05-07 13:00 38.33233 27.41543 13461 ft 301 kts 262°
2026-05-07 13:01 38.32861 27.38933 13152 ft 299 kts 261°
2026-05-07 13:01 38.32398 27.36357 12868 ft 298 kts 259°
2026-05-07 13:01 38.31906 27.33787 12571 ft 299 kts 258°
2026-05-07 13:01 38.31422 27.31234 12421 ft 293 kts 259°
2026-05-07 13:02 38.30955 27.28746 12286 ft 285 kts 259°
2026-05-07 13:02 38.30518 27.26315 12155 ft 278 kts 263°
2026-05-07 13:02 38.30507 27.23917 11880 ft 274 kts 277°
2026-05-07 13:02 38.30673 27.21510 11612 ft 272 kts 276°
2026-05-07 13:03 38.30811 27.19111 11341 ft 271 kts 276°
2026-05-07 13:03 38.30934 27.16715 11088 ft 270 kts 275°
2026-05-07 13:03 38.31041 27.14328 10820 ft 270 kts 271°
2026-05-07 13:03 38.30624 27.12008 10530 ft 273 kts 243°
2026-05-07 13:04 38.29377 27.10194 10235 ft 277 kts 217°
2026-05-07 13:04 38.27616 27.09165 9901 ft 282 kts 197°
2026-05-07 13:04 38.25721 27.08512 9596 ft 282 kts 197°
2026-05-07 13:04 38.23825 27.07874 9310 ft 282 kts 196°
2026-05-07 13:05 38.21924 27.07290 9000 ft 282 kts 187°
2026-05-07 13:05 38.19978 27.07532 8667 ft 283 kts 166°
2026-05-07 13:05 38.18056 27.08141 8300 ft 286 kts 166°
2026-05-07 13:05 38.16116 27.08753 7948 ft 288 kts 166°
2026-05-07 13:06 38.14154 27.09358 7566 ft 291 kts 166°
2026-05-07 13:06 38.12178 27.09958 7208 ft 293 kts 166°
2026-05-07 13:06 38.10185 27.10558 6818 ft 295 kts 166°
2026-05-07 13:06 38.08189 27.11168 6445 ft 296 kts 162°
2026-05-07 13:07 38.06401 27.12370 6004 ft 290 kts 135°
2026-05-07 13:07 38.05295 27.14438 5654 ft 281 kts 110°
2026-05-07 13:07 38.04920 27.16827 5294 ft 273 kts 90°
2026-05-07 13:07 38.05185 27.19163 4953 ft 265 kts 77°
2026-05-07 13:08 38.05845 27.21293 4555 ft 258 kts 50°
2026-05-07 13:08 38.07289 27.22501 4270 ft 249 kts 12°
2026-05-07 13:08 38.08951 27.22320 4094 ft 235 kts 341°
2026-05-07 13:08 38.10414 27.21662 3976 ft 218 kts 342°
2026-05-07 13:09 38.11804 27.21100 3894 ft 202 kts 342°
2026-05-07 13:09 38.13144 27.20594 3475 ft 205 kts 344°
2026-05-07 13:09 38.14520 27.20148 3040 ft 203 kts 345°
2026-05-07 13:09 38.15861 27.19739 2716 ft 193 kts 344°
2026-05-07 13:10 38.17137 27.19330 2394 ft 184 kts 344°
2026-05-07 13:10 38.18346 27.18936 2183 ft 171 kts 344°
2026-05-07 13:10 38.19451 27.18613 2022 ft 159 kts 347°
2026-05-07 13:10 38.20510 27.18352 1855 ft 152 kts 345°
2026-05-07 13:11 38.21550 27.18056 1702 ft 155 kts 342°
2026-05-07 13:11 38.22579 27.17706 1550 ft 152 kts 341°
2026-05-07 13:11 38.23600 27.17368 1323 ft 151 kts 345°
2026-05-07 13:11 38.24616 27.17075 1119 ft 150 kts 345°
2026-05-07 13:12 38.25628 27.16782 939 ft 152 kts 345°
2026-05-07 13:12 38.26650 27.16490 684 ft 147 kts 342°
2026-05-07 13:12 38.27621 27.16187 501 ft 141 kts 343°
2026-05-07 13:12 38.28556 27.15908 418 ft 130 kts 344°
2026-05-07 13:13 38.29311 27.15673 416 ft 90 kts 346°
2026-05-07 13:13 38.29693 27.15543 412 ft 40 kts 335°
2026-05-07 13:13 38.29846 27.15410 415 ft 14 kts 320°
2026-05-07 13:13 38.29921 27.15329 413 ft 14 kts 316°
2026-05-07 13:14 38.29984 27.15243 416 ft 13 kts 294°
2026-05-07 13:14 38.29969 27.15124 412 ft 15 kts 255°
2026-05-07 13:14 38.29945 27.14988 410 ft 16 kts 253°
2026-05-07 13:14 38.29867 27.14974 410 ft 12 kts 166°
2026-05-07 13:15 38.29784 27.14998 410 ft 12 kts 167°
2026-05-07 13:15 38.29703 27.15021 410 ft 12 kts 167°
2026-05-07 13:15 38.29651 27.15038 410 ft 12 kts 166°
2026-05-07 13:15 38.29549 27.15068 410 ft 11 kts 167°
2026-05-07 13:16 38.29499 27.15083 410 ft 11 kts 165°
2026-05-07 13:16 38.29427 27.15106 408 ft 11 kts 166°
2026-05-07 13:16 38.29356 27.15126 410 ft 10 kts 168°
2026-05-07 13:16 38.29287 27.15147 410 ft 10 kts 172°
2026-05-07 13:17 38.29255 27.15105 410 ft 7 kts 256°
2026-05-07 13:17 38.29250 27.15076 410 ft 0 kts 256°